When you browse on this site, cookies collect data to enhance your experience and personalize the content and advertising you see.
Visit our Privacy Policy to learn more. By continuing to use the site, you agree to this use of cookies and data.
  • In Spain
  • List of Countries
  • For 7 days
  • Water Temperature
  • Satellite Maps
  • Weather Map
  • Weather Widgets
  • user-avatar
    Login

    Hourly Weather Wien

    Today, 18 July, Thursday

    Time Temperature Precipitation Wind Pressure Humidity
    00:00 +19°C° 0.3 mm 1 mps 741 mmHg 78%
    01:00 +19°C° 0 mm 1 mps 741 mmHg 79%
    02:00 +18°C° 0.3 mm 1 mps 741 mmHg 81%
    03:00 +18°C° 0.3 mm 1 mps 740 mmHg 83%
    04:00 +16°C° 0.3 mm 1 mps 740 mmHg 85%
    05:00 +18°C° 0.1 mm 1 mps 740 mmHg 81%
    06:00 +19°C° 0.1 mm 1 mps 741 mmHg 78%
    07:00 +20°C° 0.1 mm 1 mps 741 mmHg 75%
    08:00 +22°C° 0.2 mm 1 mps 741 mmHg 69%
    09:00 +24°C° 0.2 mm 1 mps 741 mmHg 63%
    10:00 +26°C° 0.2 mm 1 mps 741 mmHg 57%
    11:00 +27°C° 0.1 mm 1 mps 741 mmHg 50%
    12:00 +28°C° 0.1 mm 1 mps 741 mmHg 42%
    13:00 +29°C° 0.1 mm 1 mps 741 mmHg 35%
    14:00 +29°C° 0 mm 1 mps 741 mmHg 36%
    15:00 +29°C° 0 mm 2 mps 741 mmHg 36%
    16:00 +29°C° 0 mm 2 mps 741 mmHg 36%
    17:00 +28°C° 0 mm 2 mps 741 mmHg 41%
    18:00 +27°C° 0 mm 1 mps 741 mmHg 46%
    19:00 +26°C° 0 mm 1 mps 741 mmHg 50%
    20:00 +25°C° 0 mm 1 mps 741 mmHg 53%
    21:00 +23°C° 0 mm 1 mps 742 mmHg 56%
    22:00 +20°C° 0 mm 0 mps 742 mmHg 59%
    23:00 +20°C° 0 mm 0 mps 742 mmHg 60%

    Tomorrow, 19 July, Friday

    Time Temperature Precipitation Wind Pressure Humidity
    00:00 +22°C° 0 mm 1 mps 742 mmHg 61%
    01:00 +21°C° 0 mm 1 mps 742 mmHg 62%
    02:00 +21°C° 0 mm 1 mps 743 mmHg 64%
    03:00 +20°C° 0 mm 1 mps 743 mmHg 65%
    04:00 +20°C° 0 mm 1 mps 743 mmHg 66%
    05:00 +21°C° 0 mm 1 mps 743 mmHg 64%
    06:00 +22°C° 0 mm 1 mps 743 mmHg 61%
    07:00 +23°C° 0 mm 1 mps 743 mmHg 58%
    08:00 +24°C° 0 mm 1 mps 743 mmHg 53%
    09:00 +26°C° 0 mm 1 mps 743 mmHg 48%
    10:00 +28°C° 0 mm 1 mps 743 mmHg 43%
    11:00 +29°C° 0 mm 2 mps 743 mmHg 41%
    12:00 +29°C° 0 mm 2 mps 743 mmHg 38%
    13:00 +30°C° 0 mm 2 mps 743 mmHg 35%
    14:00 +30°C° 0 mm 2 mps 743 mmHg 35%
    15:00 +30°C° 0 mm 1 mps 743 mmHg 35%
    16:00 +30°C° 0 mm 1 mps 743 mmHg 35%
    17:00 +29°C° 0 mm 1 mps 743 mmHg 39%
    18:00 +28°C° 0 mm 1 mps 743 mmHg 43%
    19:00 +25°C° 0 mm 0 mps 743 mmHg 47%
    20:00 +26°C° 0 mm 1 mps 743 mmHg 50%
    21:00 +25°C° 0 mm 1 mps 744 mmHg 53%
    22:00 +23°C° 0 mm 1 mps 744 mmHg 57%
    23:00 +23°C° 0 mm 1 mps 744 mmHg 59%

    Day after tomorrow, 20 July, Saturday

    Time Temperature Precipitation Wind Pressure Humidity
    00:00 +22°C° 0 mm 1 mps 744 mmHg 61%
    01:00 +22°C° 0 mm 1 mps 744 mmHg 63%
    02:00 +21°C° 0 mm 1 mps 744 mmHg 66%
    03:00 +21°C° 0 mm 1 mps 744 mmHg 68%
    04:00 +20°C° 0 mm 1 mps 744 mmHg 70%
    05:00 +19°C° 0 mm 0 mps 744 mmHg 67%
    06:00 +21°C° 0 mm 0 mps 744 mmHg 63%
    07:00 +22°C° 0 mm 0 mps 744 mmHg 60%
    08:00 +26°C° 0 mm 1 mps 745 mmHg 55%
    09:00 +27°C° 0 mm 1 mps 745 mmHg 49%
    10:00 +29°C° 0 mm 2 mps 745 mmHg 44%
    11:00 +30°C° 0 mm 2 mps 745 mmHg 41%
    12:00 +32°C° 0 mm 2 mps 745 mmHg 38%
    13:00 +34°C° 0 mm 3 mps 744 mmHg 35%
    14:00 +34°C° 0 mm 3 mps 744 mmHg 35%
    15:00 +34°C° 0 mm 3 mps 744 mmHg 34%
    16:00 +35°C° 0 mm 3 mps 744 mmHg 34%
    17:00 +33°C° 0 mm 3 mps 744 mmHg 39%
    18:00 +31°C° 0 mm 3 mps 744 mmHg 45%
    19:00 +29°C° 0 mm 3 mps 744 mmHg 50%
    20:00 +28°C° 0 mm 2 mps 744 mmHg 53%
    21:00 +27°C° 0 mm 2 mps 745 mmHg 57%
    22:00 +26°C° 0 mm 2 mps 745 mmHg 60%
    23:00 +25°C° 0 mm 2 mps 745 mmHg 63%

    21 July, Sunday

    Time Temperature Precipitation Wind Pressure Humidity
    00:00 +24°C° 0 mm 1 mps 745 mmHg 66%
    01:00 +24°C° 0 mm 1 mps 745 mmHg 68%
    02:00 +23°C° 0 mm 1 mps 745 mmHg 69%
    03:00 +23°C° 0 mm 1 mps 745 mmHg 70%
    04:00 +20°C° 0 mm 0 mps 745 mmHg 71%
    05:00 +22°C° 0 mm 0 mps 745 mmHg 67%
    06:00 +23°C° 0 mm 0 mps 745 mmHg 63%
    07:00 +24°C° 0 mm 0 mps 746 mmHg 59%
    08:00 +28°C° 0 mm 1 mps 746 mmHg 53%
    09:00 +30°C° 0 mm 1 mps 746 mmHg 47%
    10:00 +32°C° 0 mm 1 mps 746 mmHg 41%
    11:00 +32°C° 0 mm 2 mps 746 mmHg 40%
    12:00 +34°C° 0 mm 3 mps 746 mmHg 38%
    13:00 +34°C° 0 mm 3 mps 746 mmHg 37%
    14:00 +34°C° 0 mm 4 mps 746 mmHg 38%
    15:00 +34°C° 0 mm 4 mps 746 mmHg 38%
    16:00 +34°C° 0 mm 4 mps 746 mmHg 39%
    17:00 +33°C° 0.2 mm 4 mps 747 mmHg 46%
    18:00 +30°C° 0.2 mm 3 mps 747 mmHg 53%
    19:00 +28°C° 0.2 mm 3 mps 747 mmHg 60%
    20:00 +27°C° 0 mm 3 mps 748 mmHg 63%
    21:00 +26°C° 0 mm 3 mps 748 mmHg 66%
    22:00 +25°C° 0 mm 2 mps 748 mmHg 68%
    23:00 +24°C° 0 mm 2 mps 748 mmHg 70%

    22 July, Monday

    Time Temperature Precipitation Wind Pressure Humidity
    00:00 +24°C° 0 mm 2 mps 748 mmHg 72%
    01:00 +23°C° 0 mm 2 mps 748 mmHg 74%
    02:00 +21°C° 0 mm 2 mps 748 mmHg 75%
    03:00 +21°C° 0 mm 2 mps 748 mmHg 76%
    04:00 +21°C° 0 mm 1 mps 748 mmHg 77%
    05:00 +22°C° 0 mm 1 mps 748 mmHg 72%
    06:00 +23°C° 0 mm 1 mps 749 mmHg 68%
    07:00 +24°C° 0 mm 1 mps 749 mmHg 63%
    08:00 +26°C° 0 mm 2 mps 749 mmHg 56%
    09:00 +27°C° 0 mm 2 mps 749 mmHg 49%
    10:00 +29°C° 0 mm 2 mps 749 mmHg 43%
    11:00 +30°C° 0 mm 2 mps 749 mmHg 40%
    12:00 +31°C° 0 mm 2 mps 749 mmHg 37%
    13:00 +31°C° 0 mm 2 mps 749 mmHg 35%
    14:00 +33°C° 0 mm 3 mps 748 mmHg 34%
    15:00 +33°C° 0 mm 3 mps 748 mmHg 33%
    16:00 +33°C° 0 mm 3 mps 748 mmHg 33%
    17:00 +30°C° 0 mm 3 mps 748 mmHg 37%
    18:00 +29°C° 0 mm 3 mps 748 mmHg 42%
    19:00 +28°C° 0 mm 3 mps 748 mmHg 47%
    20:00 +26°C° 0 mm 2 mps 748 mmHg 50%
    21:00 +25°C° 0 mm 2 mps 748 mmHg 53%
    22:00 +24°C° 0 mm 2 mps 748 mmHg 56%
    23:00 +23°C° 0 mm 2 mps 748 mmHg 60%

    23 July, Tuesday

    Time Temperature Precipitation Wind Pressure Humidity
    00:00 +23°C° 0 mm 1 mps 748 mmHg 63%
    01:00 +22°C° 0 mm 1 mps 748 mmHg 66%
    02:00 +21°C° 0 mm 1 mps 748 mmHg 68%
    03:00 +21°C° 0 mm 1 mps 748 mmHg 70%
    04:00 +20°C° 0 mm 1 mps 748 mmHg 73%
    05:00 +20°C° 0 mm 2 mps 748 mmHg 70%
    06:00 +21°C° 0 mm 2 mps 748 mmHg 67%
    07:00 +23°C° 0 mm 2 mps 748 mmHg 64%
    08:00 +25°C° 0 mm 2 mps 748 mmHg 58%
    09:00 +26°C° 0 mm 2 mps 748 mmHg 51%
    10:00 +28°C° 0 mm 3 mps 748 mmHg 45%
    11:00 +29°C° 0 mm 3 mps 748 mmHg 41%
    12:00 +30°C° 0 mm 3 mps 747 mmHg 36%
    13:00 +31°C° 0 mm 3 mps 747 mmHg 31%
    14:00 +31°C° 0 mm 3 mps 747 mmHg 31%
    15:00 +31°C° 0 mm 3 mps 746 mmHg 31%
    16:00 +31°C° 0 mm 3 mps 746 mmHg 31%
    17:00 +30°C° 0 mm 3 mps 746 mmHg 36%
    18:00 +28°C° 0 mm 3 mps 746 mmHg 40%
    19:00 +27°C° 0 mm 3 mps 746 mmHg 44%
    20:00 +26°C° 0 mm 2 mps 746 mmHg 49%
    21:00 +24°C° 0 mm 2 mps 746 mmHg 53%
    22:00 +23°C° 0 mm 2 mps 746 mmHg 57%
    23:00 +21°C° 0 mm 2 mps 746 mmHg 58%
    Show more